| time (UTC) | temp F | wind direction | speed MPH | gust MPH | rain 1hr in | rain 24hr in | rain mn in | humidity % | barometer mb |
| 20260905234717 | 78 | 34 | 8.0 | 12.0 | 0.00 | 0.00 | 0.00 | 84 | 1015.7 |
| 20260905234212 | 79 | 24 | 8.0 | 11.0 | 0.00 | 0.00 | 0.00 | 83 | 1015.3 |
| 20260905233707 | 79 | 16 | 8.0 | 10.0 | 0.00 | 0.00 | 0.00 | 82 | 1015.3 |
| 20260905233207 | 80 | 34 | 9.0 | 12.0 | 0.00 | 0.00 | 0.00 | 81 | 1015.3 |
| 20260905232702 | 80 | 31 | 8.0 | 11.0 | 0.00 | 0.00 | 0.00 | 81 | 1015.3 |
| 20260905232157 | 81 | 18 | 7.0 | 10.0 | 0.00 | 0.00 | 0.00 | 80 | 1015.3 |
| 20260905231653 | 81 | 20 | 10.0 | 14.0 | 0.00 | 0.00 | 0.00 | 79 | 1015.0 |
| 20260905231148 | 81 | 14 | 10.0 | 12.0 | 0.00 | 0.00 | 0.00 | 79 | 1015.0 |
| 20260905230644 | 82 | 23 | 10.0 | 13.0 | 0.00 | 0.00 | 0.00 | 78 | 1015.0 |
| 20260905230142 | 82 | 17 | 9.0 | 13.0 | 0.00 | 0.00 | 0.00 | 77 | 1014.7 |
| 20260905225642 | 83 | 37 | 11.0 | 17.0 | 0.00 | 0.00 | 0.00 | 77 | 1014.7 |
| 20260905225142 | 83 | 24 | 7.0 | 11.0 | 0.00 | 0.00 | 0.00 | 76 | 1014.7 |
| 20260905224642 | 84 | 26 | 11.0 | 17.0 | 0.00 | 0.00 | 0.00 | 75 | 1014.7 |
| 20260905224141 | 84 | 24 | 9.0 | 13.0 | 0.00 | 0.00 | 0.00 | 75 | 1014.7 |
| 20260905223638 | 84 | 26 | 8.0 | 12.0 | 0.00 | 0.00 | 0.00 | 75 | 1014.7 |
| 20260905223135 | 85 | 26 | 9.0 | 14.0 | 0.00 | 0.00 | 0.00 | 74 | 1014.7 |
| 20260905222630 | 85 | 23 | 11.0 | 15.0 | 0.00 | 0.00 | 0.00 | 73 | 1014.7 |
| 20260905222125 | 85 | 15 | 10.0 | 15.0 | 0.00 | 0.00 | 0.00 | 73 | 1014.7 |
| 20260905221621 | 85 | 11 | 11.0 | 14.0 | 0.00 | 0.00 | 0.00 | 73 | 1014.7 |
| 20260905221117 | 86 | 10 | 9.0 | 13.0 | 0.00 | 0.00 | 0.00 | 74 | 1014.7 |
| 20260905220613 | 86 | 10 | 11.0 | 13.0 | 0.00 | 0.00 | 0.00 | 72 | 1014.3 |
| 20260905220109 | 87 | 17 | 10.0 | 13.0 | 0.00 | 0.00 | 0.00 | 72 | 1014.3 |
| 20260905215608 | 87 | 11 | 10.0 | 14.0 | 0.00 | 0.00 | 0.00 | 72 | 1014.0 |
| 20260905215104 | 87 | 3 | 8.0 | 13.0 | 0.00 | 0.00 | 0.00 | 72 | 1014.3 |
| 20260905214600 | 87 | 13 | 7.0 | 10.0 | 0.00 | 0.00 | 0.00 | 73 | 1014.0 |
| 20260905214100 | 87 | 358 | 7.0 | 11.0 | 0.00 | 0.00 | 0.00 | 73 | 1014.3 |
| 20260905213601 | 87 | 17 | 10.0 | 11.0 | 0.00 | 0.00 | 0.00 | 72 | 1014.3 |
| 20260905213056 | 88 | 25 | 11.0 | 15.0 | 0.00 | 0.00 | 0.00 | 72 | 1014.0 |
| 20260905212556 | 88 | 4 | 11.0 | 15.0 | 0.00 | 0.00 | 0.00 | 72 | 1014.0 |
| 20260905212056 | 88 | 10 | 11.0 | 14.0 | 0.00 | 0.00 | 0.00 | 72 | 1014.0 |
| 20260905211551 | 89 | 15 | 8.0 | 12.0 | 0.00 | 0.00 | 0.00 | 72 | 1014.0 |
| 20260905211047 | 89 | 22 | 9.0 | 11.0 | 0.00 | 0.00 | 0.00 | 71 | 1014.0 |
| 20260905210543 | 89 | 2 | 7.0 | 10.0 | 0.00 | 0.00 | 0.00 | 73 | 1014.0 |
| 20260905210037 | 89 | 3 | 9.0 | 13.0 | 0.00 | 0.00 | 0.00 | 72 | 1013.6 |
| 20260905205537 | 89 | 15 | 10.0 | 17.0 | 0.00 | 0.00 | 0.00 | 72 | 1013.6 |
| 20260905205036 | 89 | 358 | 9.0 | 13.0 | 0.00 | 0.00 | 0.00 | 72 | 1013.6 |
| 20260905204531 | 89 | 347 | 10.0 | 13.0 | 0.00 | 0.00 | 0.00 | 72 | 1013.6 |
| 20260905204026 | 89 | 8 | 9.0 | 10.0 | 0.00 | 0.00 | 0.00 | 72 | 1013.6 |
| 20260905203526 | 90 | 36 | 10.0 | 14.0 | 0.00 | 0.00 | 0.00 | 72 | 1013.6 |
| 20260905203021 | 90 | 17 | 11.0 | 15.0 | 0.00 | 0.00 | 0.00 | 72 | 1013.6 |
| 20260905202517 | 90 | 4 | 10.0 | 15.0 | 0.00 | 0.00 | 0.00 | 72 | 1013.6 |
| 20260905202012 | 90 | 347 | 7.0 | 10.0 | 0.00 | 0.00 | 0.00 | 73 | 1014.0 |
| 20260905201508 | 91 | 7 | 8.0 | 11.0 | 0.00 | 0.00 | 0.00 | 73 | 1014.0 |
| 20260905201007 | 90 | 329 | 8.0 | 11.0 | 0.00 | 0.00 | 0.00 | 73 | 1014.0 |
| 20260905200503 | 89 | 352 | 8.0 | 11.0 | 0.00 | 0.00 | 0.00 | 73 | 1014.0 |
| 20260905200001 | 91 | 5 | 9.0 | 14.0 | 0.00 | 0.00 | 0.00 | 71 | 1014.0 |
| 20260905195456 | 92 | 346 | 7.0 | 12.0 | 0.00 | 0.00 | 0.00 | 71 | 1013.6 |
| 20260905194952 | 91 | 347 | 6.0 | 10.0 | 0.00 | 0.00 | 0.00 | 70 | 1014.0 |
| 20260905194451 | 91 | 333 | 9.0 | 13.0 | 0.00 | 0.00 | 0.00 | 70 | 1013.6 |
| 20260905193946 | 92 | 330 | 7.0 | 9.0 | 0.00 | 0.00 | 0.00 | 72 | 1014.0 |
| 20260905193446 | 92 | 345 | 5.0 | 6.0 | 0.00 | 0.00 | 0.00 | 71 | 1013.6 |
| 20260905192941 | 92 | 4 | 8.0 | 10.0 | 0.00 | 0.00 | 0.00 | 71 | 1014.0 |
| 20260905192436 | 92 | 327 | 6.0 | 9.0 | 0.00 | 0.00 | 0.00 | 70 | 1014.0 |
| 20260905191932 | 92 | 333 | 6.0 | 10.0 | 0.00 | 0.00 | 0.00 | 70 | 1014.0 |
| 20260905191431 | 92 | 334 | 3.0 | 7.0 | 0.00 | 0.00 | 0.00 | 71 | 1014.0 |
| 20260905190931 | 91 | 6 | 6.0 | 7.0 | 0.00 | 0.00 | 0.00 | 73 | 1014.0 |
| 20260905190429 | 91 | 342 | 5.0 | 7.0 | 0.00 | 0.00 | 0.00 | 73 | 1014.0 |
| 20260905185928 | 89 | 356 | 4.0 | 5.0 | 0.00 | 0.00 | 0.00 | 75 | 1014.3 |
| 20260905185423 | 90 | 358 | 6.0 | 8.0 | 0.00 | 0.00 | 0.00 | 71 | 1014.7 |
| 20260905184921 | 93 | 336 | 6.0 | 8.0 | 0.00 | 0.00 | 0.00 | 69 | 1014.3 |
| 20260905184416 | 92 | 320 | 5.0 | 9.0 | 0.00 | 0.00 | 0.00 | 70 | 1014.3 |
| 20260905183915 | 91 | 308 | 2.0 | 4.0 | 0.00 | 0.00 | 0.00 | 73 | 1014.3 |
| 20260905183410 | 90 | 352 | 4.0 | 5.0 | 0.00 | 0.00 | 0.00 | 74 | 1014.3 |
| 20260905182905 | 90 | 7 | 6.0 | 6.0 | 0.00 | 0.00 | 0.00 | 74 | 1014.7 |
| 20260905182404 | 91 | 1 | 6.0 | 9.0 | 0.00 | 0.00 | 0.00 | 73 | 1014.3 |
| 20260905181901 | 90 | 24 | 4.0 | 6.0 | 0.00 | 0.00 | 0.00 | 74 | 1014.7 |
| 20260905181400 | 90 | 4 | 5.0 | 8.0 | 0.00 | 0.00 | 0.00 | 74 | 1014.7 |
| 20260905180859 | 91 | 334 | 5.0 | 6.0 | 0.00 | 0.00 | 0.00 | 72 | 1014.7 |
| 20260905180354 | 91 | 349 | 4.0 | 5.0 | 0.00 | 0.00 | 0.00 | 73 | 1014.7 |
| 20260905175849 | 91 | 336 | 3.0 | 5.0 | 0.00 | 0.00 | 0.00 | 73 | 1014.7 |
| 20260905175343 | 91 | 13 | 4.0 | 5.0 | 0.00 | 0.00 | 0.00 | 71 | 1014.7 |
| 20260905174838 | 91 | 10 | 4.0 | 5.0 | 0.00 | 0.00 | 0.00 | 71 | 1014.7 |
| 20260905174334 | 91 | 11 | 1.0 | 3.0 | 0.00 | 0.00 | 0.00 | 73 | 1014.7 |
| 20260905173830 | 90 | 356 | 4.0 | 4.0 | 0.00 | 0.00 | 0.00 | 72 | 1014.7 |
| 20260905173326 | 91 | 356 | 4.0 | 6.0 | 0.00 | 0.00 | 0.00 | 71 | 1014.7 |
| 20260905172826 | 91 | 356 | 4.0 | 7.0 | 0.00 | 0.00 | 0.00 | 71 | 1014.7 |
| 20260905172324 | 91 | 356 | 5.0 | 7.0 | 0.00 | 0.00 | 0.00 | 72 | 1014.7 |
| 20260905171820 | 91 | 352 | 5.0 | 6.0 | 0.00 | 0.00 | 0.00 | 71 | 1014.7 |
| 20260905171317 | 91 | 310 | 0.0 | 0.0 | 0.00 | 0.00 | 0.00 | 71 | 1015.0 |
| 20260905170813 | 91 | 310 | 5.0 | 6.0 | 0.00 | 0.00 | 0.00 | 72 | 1015.0 |
| 20260905170308 | 91 | 334 | 3.0 | 4.0 | 0.00 | 0.00 | 0.00 | 71 | 1015.0 |
| 20260905165807 | 91 | 343 | 4.0 | 5.0 | 0.00 | 0.00 | 0.00 | 70 | 1015.0 |
| 20260905165306 | 91 | 306 | 1.0 | 2.0 | 0.00 | 0.00 | 0.00 | 72 | 1015.0 |
| 20260905164803 | 91 | 306 | 2.0 | 5.0 | 0.00 | 0.00 | 0.00 | 72 | 1015.0 |
| 20260905164258 | 90 | 306 | 2.0 | 6.0 | 0.00 | 0.00 | 0.00 | 72 | 1015.0 |
| 20260905163753 | 90 | 306 | 4.0 | 8.0 | 0.00 | 0.00 | 0.00 | 73 | 1015.0 |
| 20260905163249 | 90 | 319 | 5.0 | 7.0 | 0.00 | 0.00 | 0.00 | 73 | 1015.0 |
| 20260905162745 | 89 | 342 | 4.0 | 6.0 | 0.00 | 0.00 | 0.00 | 75 | 1015.0 |
| 20260905162245 | 88 | 342 | 4.0 | 5.0 | 0.00 | 0.00 | 0.00 | 74 | 1015.3 |
| 20260905161739 | 88 | 340 | 4.0 | 7.0 | 0.00 | 0.00 | 0.00 | 74 | 1015.3 |
| 20260905161238 | 88 | 342 | 4.0 | 7.0 | 0.00 | 0.00 | 0.00 | 74 | 1015.3 |
| 20260905160737 | 90 | 324 | 4.0 | 6.0 | 0.00 | 0.00 | 0.00 | 72 | 1015.3 |
| 20260905160237 | 90 | 345 | 5.0 | 7.0 | 0.00 | 0.00 | 0.00 | 71 | 1015.0 |
| 20260905155732 | 90 | 330 | 2.0 | 7.0 | 0.00 | 0.00 | 0.00 | 73 | 1015.0 |
| 20260905155231 | 89 | 332 | 3.0 | 5.0 | 0.00 | 0.00 | 0.00 | 72 | 1015.0 |
| 20260905154725 | 89 | 330 | 3.0 | 5.0 | 0.00 | 0.00 | 0.00 | 72 | 1015.0 |
| 20260905154221 | 89 | 333 | 1.0 | 3.0 | 0.00 | 0.00 | 0.00 | 74 | 1015.0 |
| 20260905153716 | 88 | 334 | 3.0 | 6.0 | 0.00 | 0.00 | 0.00 | 74 | 1015.0 |
| 20260905153212 | 88 | 342 | 5.0 | 8.0 | 0.00 | 0.00 | 0.00 | 76 | 1015.0 |
| 20260905152707 | 87 | 0 | 6.0 | 9.0 | 0.00 | 0.00 | 0.00 | 76 | 1015.0 |
| 20260905152201 | 87 | 1 | 5.0 | 7.0 | 0.00 | 0.00 | 0.00 | 77 | 1015.0 |
| 20260905151655 | 87 | 358 | 6.0 | 10.0 | 0.00 | 0.00 | 0.00 | 76 | 1015.0 |
| 20260905151151 | 87 | 333 | 4.0 | 6.0 | 0.00 | 0.00 | 0.00 | 77 | 1015.0 |
| 20260905150646 | 87 | 333 | 4.0 | 5.0 | 0.00 | 0.00 | 0.00 | 77 | 1015.0 |
| 20260905150145 | 86 | 333 | 4.0 | 6.0 | 0.00 | 0.00 | 0.00 | 76 | 1015.0 |
| 20260905145643 | 86 | 330 | 4.0 | 5.0 | 0.00 | 0.00 | 0.00 | 79 | 1015.0 |
| 20260905145143 | 85 | 330 | 3.0 | 5.0 | 0.00 | 0.00 | 0.00 | 79 | 1015.0 |
| 20260905144637 | 85 | 330 | 4.0 | 6.0 | 0.00 | 0.00 | 0.00 | 80 | 1015.0 |
| 20260905144136 | 84 | 330 | 4.0 | 6.0 | 0.00 | 0.00 | 0.00 | 81 | 1015.0 |
| 20260905143632 | 84 | 330 | 4.0 | 5.0 | 0.00 | 0.00 | 0.00 | 81 | 1014.7 |
| 20260905143131 | 84 | 330 | 5.0 | 6.0 | 0.00 | 0.00 | 0.00 | 82 | 1015.0 |
| 20260905142630 | 83 | 0 | 4.0 | 6.0 | 0.00 | 0.00 | 0.00 | 84 | 1014.7 |
| 20260905142130 | 82 | 0 | 2.0 | 4.0 | 0.00 | 0.00 | 0.00 | 85 | 1015.0 |
| 20260905141630 | 82 | 0 | 2.0 | 3.0 | 0.00 | 0.00 | 0.00 | 85 | 1015.3 |
| 20260905141127 | 83 | 0 | 3.0 | 5.0 | 0.00 | 0.00 | 0.00 | 84 | 1015.7 |
| 20260905140622 | 83 | 0 | 2.0 | 4.0 | 0.00 | 0.00 | 0.00 | 84 | 1015.3 |
| 20260905140121 | 82 | 1 | 4.0 | 4.0 | 0.00 | 0.00 | 0.00 | 85 | 1015.3 |
| 20260905135616 | 82 | 4 | 1.0 | 2.0 | 0.00 | 0.00 | 0.00 | 85 | 1015.0 |
| 20260905135111 | 81 | 4 | 2.0 | 3.0 | 0.00 | 0.00 | 0.00 | 85 | 1015.0 |
| 20260905134606 | 82 | 294 | 2.0 | 3.0 | 0.00 | 0.00 | 0.00 | 86 | 1015.0 |
| 20260905134104 | 81 | 294 | 0.0 | 2.0 | 0.00 | 0.00 | 0.00 | 86 | 1015.0 |
| 20260905133600 | 81 | 294 | 0.0 | 2.0 | 0.00 | 0.00 | 0.00 | 87 | 1015.0 |
| 20260905133100 | 80 | 294 | 0.0 | 0.0 | 0.00 | 0.00 | 0.00 | 87 | 1015.0 |
| 20260905132600 | 81 | 294 | 0.0 | 0.0 | 0.00 | 0.00 | 0.00 | 87 | 1015.0 |
| 20260905132054 | 80 | 294 | 0.0 | 0.0 | 0.00 | 0.00 | 0.00 | 86 | 1015.0 |
| 20260905131550 | 80 | 294 | 0.0 | 0.0 | 0.00 | 0.00 | 0.00 | 87 | 1015.0 |
| 20260905131045 | 80 | 294 | 0.0 | 0.0 | 0.00 | 0.00 | 0.00 | 90 | 1015.0 |
| 20260905130544 | 79 | 294 | 0.0 | 0.0 | 0.00 | 0.00 | 0.00 | 92 | 1015.0 |
| 20260905130040 | 78 | 294 | 0.0 | 0.0 | 0.00 | 0.00 | 0.00 | 93 | 1015.0 |
| 20260905125539 | 78 | 294 | 0.0 | 0.0 | 0.00 | 0.00 | 0.00 | 94 | 1015.0 |
| 20260905125035 | 77 | 294 | 0.0 | 0.0 | 0.00 | 0.00 | 0.00 | 95 | 1015.0 |
| 20260905124531 | 77 | 294 | 0.0 | 0.0 | 0.00 | 0.00 | 0.00 | 95 | 1015.0 |
| 20260905124027 | 77 | 294 | 0.0 | 0.0 | 0.00 | 0.00 | 0.00 | 96 | 1015.0 |
| 20260905123522 | 76 | 294 | 0.0 | 0.0 | 0.00 | 0.00 | 0.00 | 96 | 1015.0 |
| 20260905123020 | 76 | 294 | 0.0 | 0.0 | 0.00 | 0.00 | 0.00 | 96 | 1015.0 |
| 20260905122519 | 76 | 294 | 0.0 | 0.0 | 0.00 | 0.00 | 0.00 | 97 | 1015.0 |
| 20260905122014 | 76 | 294 | 0.0 | 0.0 | 0.00 | 0.00 | 0.00 | 97 | 1015.0 |
| 20260905121509 | 75 | 294 | 0.0 | 0.0 | 0.00 | 0.00 | 0.00 | 97 | 1015.0 |
| 20260905121008 | 75 | 294 | 0.0 | 0.0 | 0.00 | 0.00 | 0.00 | 97 | 1015.0 |
| 20260905120502 | 75 | 294 | 0.0 | 0.0 | 0.00 | 0.00 | 0.00 | 97 | 1014.7 |
| 20260905115958 | 74 | 294 | 0.0 | 0.0 | 0.00 | 0.00 | 0.00 | 97 | 1015.0 |
| 20260905115457 | 74 | 294 | 0.0 | 0.0 | 0.00 | 0.00 | 0.00 | 97 | 1014.7 |
| 20260905114952 | 74 | 294 | 0.0 | 0.0 | 0.00 | 0.00 | 0.00 | 96 | 1014.7 |
| 20260905114452 | 74 | 294 | 0.0 | 0.0 | 0.00 | 0.00 | 0.00 | 96 | 1014.7 |
| 20260905113950 | 74 | 294 | 0.0 | 0.0 | 0.00 | 0.00 | 0.00 | 96 | 1014.7 |
| 20260905113446 | 74 | 294 | 0.0 | 0.0 | 0.00 | 0.00 | 0.00 | 96 | 1014.7 |
| 20260905112941 | 75 | 294 | 0.0 | 0.0 | 0.00 | 0.00 | 0.00 | 96 | 1014.7 |
| 20260905112436 | 75 | 294 | 0.0 | 0.0 | 0.00 | 0.00 | 0.00 | 96 | 1014.7 |
| 20260905111932 | 75 | 294 | 0.0 | 0.0 | 0.00 | 0.00 | 0.00 | 97 | 1014.7 |
| 20260905111432 | 74 | 294 | 0.0 | 0.0 | 0.00 | 0.00 | 0.00 | 97 | 1014.7 |
| 20260905110927 | 74 | 294 | 0.0 | 0.0 | 0.00 | 0.00 | 0.00 | 97 | 1014.7 |
| 20260905110425 | 74 | 294 | 0.0 | 0.0 | 0.00 | 0.00 | 0.00 | 97 | 1014.7 |
| 20260905105920 | 74 | 294 | 0.0 | 0.0 | 0.00 | 0.00 | 0.00 | 97 | 1014.7 |
| 20260905105420 | 74 | 294 | 0.0 | 0.0 | 0.00 | 0.00 | 0.00 | 97 | 1014.7 |
| 20260905104920 | 74 | 294 | 0.0 | 0.0 | 0.00 | 0.00 | 0.00 | 97 | 1014.7 |
| 20260905104416 | 74 | 294 | 0.0 | 0.0 | 0.00 | 0.00 | 0.00 | 97 | 1014.7 |
| 20260905103916 | 74 | 294 | 0.0 | 0.0 | 0.00 | 0.00 | 0.00 | 97 | 1014.7 |
| 20260905103411 | 74 | 294 | 0.0 | 0.0 | 0.00 | 0.00 | 0.00 | 97 | 1014.7 |
| 20260905102907 | 74 | 294 | 0.0 | 0.0 | 0.00 | 0.00 | 0.00 | 97 | 1014.7 |
| 20260905102403 | 74 | 294 | 0.0 | 0.0 | 0.00 | 0.00 | 0.00 | 97 | 1014.7 |
| 20260905101858 | 74 | 294 | 0.0 | 0.0 | 0.00 | 0.00 | 0.00 | 97 | 1014.7 |
| 20260905101356 | 74 | 294 | 0.0 | 0.0 | 0.00 | 0.00 | 0.00 | 97 | 1014.7 |
| 20260905100851 | 73 | 294 | 0.0 | 0.0 | 0.00 | 0.00 | 0.00 | 96 | 1014.7 |
| 20260905100347 | 74 | 294 | 0.0 | 0.0 | 0.00 | 0.00 | 0.00 | 96 | 1014.7 |
| 20260905095846 | 74 | 294 | 0.0 | 0.0 | 0.00 | 0.00 | 0.00 | 96 | 1014.7 |
| 20260905095340 | 74 | 294 | 0.0 | 0.0 | 0.00 | 0.00 | 0.00 | 96 | 1014.7 |
| 20260905094835 | 74 | 294 | 0.0 | 0.0 | 0.00 | 0.00 | 0.00 | 96 | 1014.7 |
| 20260905094331 | 74 | 294 | 0.0 | 0.0 | 0.00 | 0.00 | 0.00 | 96 | 1014.7 |
| 20260905093829 | 74 | 294 | 0.0 | 0.0 | 0.00 | 0.00 | 0.00 | 96 | 1014.7 |
| 20260905093325 | 74 | 294 | 0.0 | 0.0 | 0.00 | 0.00 | 0.00 | 96 | 1014.7 |
| 20260905092821 | 74 | 294 | 0.0 | 0.0 | 0.00 | 0.00 | 0.00 | 96 | 1014.7 |
| 20260905092321 | 74 | 294 | 0.0 | 0.0 | 0.00 | 0.00 | 0.00 | 96 | 1014.7 |
| 20260905091816 | 74 | 294 | 0.0 | 0.0 | 0.00 | 0.00 | 0.00 | 96 | 1014.7 |
| 20260905091317 | 75 | 294 | 0.0 | 0.0 | 0.00 | 0.00 | 0.00 | 95 | 1014.7 |
| 20260905090815 | 75 | 294 | 0.0 | 0.0 | 0.00 | 0.00 | 0.00 | 95 | 1014.7 |
| 20260905090311 | 75 | 294 | 0.0 | 0.0 | 0.00 | 0.00 | 0.00 | 95 | 1014.7 |
| 20260905085810 | 75 | 294 | 0.0 | 0.0 | 0.00 | 0.00 | 0.00 | 95 | 1014.7 |
| 20260905085310 | 75 | 294 | 0.0 | 0.0 | 0.00 | 0.00 | 0.00 | 95 | 1014.7 |
| 20260905084806 | 75 | 294 | 0.0 | 0.0 | 0.00 | 0.00 | 0.00 | 95 | 1014.7 |
| 20260905084305 | 75 | 294 | 0.0 | 0.0 | 0.00 | 0.00 | 0.00 | 95 | 1014.7 |
| 20260905083800 | 75 | 294 | 0.0 | 0.0 | 0.00 | 0.00 | 0.00 | 94 | 1014.7 |
| 20260905083256 | 75 | 294 | 0.0 | 0.0 | 0.00 | 0.00 | 0.00 | 94 | 1014.7 |
| 20260905082752 | 76 | 294 | 0.0 | 0.0 | 0.00 | 0.00 | 0.00 | 94 | 1014.7 |
| 20260905082248 | 76 | 294 | 0.0 | 0.0 | 0.00 | 0.00 | 0.00 | 93 | 1014.7 |
| 20260905081748 | 76 | 294 | 0.0 | 0.0 | 0.00 | 0.00 | 0.00 | 93 | 1014.3 |
| 20260905081243 | 76 | 294 | 0.0 | 0.0 | 0.00 | 0.00 | 0.00 | 93 | 1014.7 |
| 20260905080742 | 76 | 294 | 0.0 | 0.0 | 0.00 | 0.00 | 0.00 | 93 | 1014.3 |
| 20260905080242 | 76 | 294 | 0.0 | 0.0 | 0.00 | 0.00 | 0.00 | 93 | 1014.3 |
| 20260905075741 | 77 | 294 | 0.0 | 0.0 | 0.00 | 0.00 | 0.00 | 93 | 1014.3 |
| 20260905075240 | 77 | 294 | 0.0 | 0.0 | 0.00 | 0.00 | 0.00 | 92 | 1014.3 |
| 20260905074739 | 77 | 294 | 0.0 | 0.0 | 0.00 | 0.00 | 0.00 | 92 | 1014.3 |
| 20260905074236 | 77 | 294 | 0.0 | 1.0 | 0.00 | 0.00 | 0.00 | 92 | 1014.3 |
| 20260905073731 | 77 | 294 | 0.0 | 0.0 | 0.00 | 0.00 | 0.00 | 92 | 1014.3 |
| 20260905073226 | 77 | 294 | 0.0 | 0.0 | 0.00 | 0.00 | 0.00 | 92 | 1014.3 |
| 20260905072725 | 77 | 294 | 0.0 | 1.0 | 0.00 | 0.00 | 0.00 | 92 | 1014.3 |
| 20260905072221 | 77 | 294 | 0.0 | 1.0 | 0.00 | 0.00 | 0.00 | 92 | 1014.3 |
| 20260905071717 | 78 | 294 | 0.0 | 0.0 | 0.00 | 0.00 | 0.00 | 92 | 1014.3 |
| 20260905071214 | 78 | 294 | 0.0 | 0.0 | 0.00 | 0.00 | 0.00 | 92 | 1014.3 |
| 20260905070708 | 78 | 294 | 0.0 | 0.0 | 0.00 | 0.00 | 0.00 | 92 | 1014.7 |
| 20260905070204 | 77 | 294 | 0.0 | 0.0 | 0.00 | 0.00 | 0.00 | 93 | 1014.7 |
| 20260905065702 | 77 | 294 | 0.0 | 0.0 | 0.00 | 0.00 | 0.00 | 94 | 1014.7 |
| 20260905065157 | 77 | 294 | 0.0 | 0.0 | 0.00 | 0.00 | 0.00 | 94 | 1014.7 |
| 20260905064652 | 77 | 294 | 0.0 | 0.0 | 0.00 | 0.00 | 0.00 | 94 | 1014.7 |
| 20260905064148 | 77 | 294 | 0.0 | 0.0 | 0.00 | 0.00 | 0.00 | 94 | 1014.7 |
| 20260905063646 | 77 | 294 | 0.0 | 0.0 | 0.00 | 0.00 | 0.00 | 95 | 1014.7 |
| 20260905063143 | 77 | 294 | 0.0 | 0.0 | 0.00 | 0.00 | 0.00 | 96 | 1014.7 |
| 20260905062638 | 76 | 294 | 0.0 | 0.0 | 0.00 | 0.00 | 0.00 | 97 | 1014.7 |
| 20260905062137 | 76 | 294 | 0.0 | 0.0 | 0.00 | 0.00 | 0.00 | 98 | 1014.7 |
| 20260905061632 | 75 | 294 | 0.0 | 0.0 | 0.00 | 0.00 | 0.00 | 98 | 1014.7 |
| 20260905061132 | 75 | 294 | 0.0 | 0.0 | 0.00 | 0.00 | 0.00 | 97 | 1014.7 |
| 20260905060627 | 76 | 294 | 0.0 | 0.0 | 0.00 | 0.00 | 0.00 | 98 | 1015.0 |
| 20260905060124 | 75 | 294 | 0.0 | 0.0 | 0.00 | 0.00 | 0.00 | 97 | 1015.0 |
| 20260905055622 | 75 | 294 | 0.0 | 0.0 | 0.00 | 0.00 | 0.00 | 97 | 1015.0 |
| 20260905055117 | 76 | 294 | 0.0 | 0.0 | 0.00 | 0.00 | 0.00 | 97 | 1015.0 |
| 20260905054613 | 76 | 294 | 0.0 | 0.0 | 0.00 | 0.00 | 0.00 | 97 | 1015.0 |
| 20260905054109 | 76 | 294 | 0.0 | 0.0 | 0.00 | 0.00 | 0.00 | 97 | 1015.0 |
| 20260905053608 | 76 | 294 | 0.0 | 0.0 | 0.00 | 0.00 | 0.00 | 97 | 1015.0 |
| 20260905053103 | 76 | 294 | 0.0 | 0.0 | 0.00 | 0.00 | 0.00 | 97 | 1015.0 |
| 20260905052602 | 76 | 294 | 0.0 | 0.0 | 0.00 | 0.00 | 0.00 | 97 | 1015.0 |
| 20260905052052 | 76 | 294 | 0.0 | 0.0 | 0.00 | 0.00 | 0.00 | 97 | 1015.0 |
| 20260905051548 | 75 | 294 | 0.0 | 0.0 | 0.00 | 0.00 | 0.00 | 96 | 1015.3 |
| 20260905051044 | 75 | 294 | 0.0 | 0.0 | 0.00 | 0.00 | 0.00 | 96 | 1015.3 |
| 20260905050539 | 75 | 294 | 0.0 | 0.0 | 0.00 | 0.00 | 0.00 | 96 | 1015.3 |
| 20260905050037 | 75 | 294 | 0.0 | 0.0 | 0.00 | 0.00 | 0.00 | 96 | 1015.3 |
| 20260905045531 | 76 | 294 | 0.0 | 0.0 | 0.00 | 0.00 | 0.00 | 96 | 1015.3 |
| 20260905045026 | 76 | 294 | 0.0 | 0.0 | 0.00 | 0.00 | 0.00 | 96 | 1015.3 |
| 20260905044521 | 76 | 294 | 0.0 | 0.0 | 0.00 | 0.00 | 0.00 | 96 | 1015.3 |
| 20260905044020 | 76 | 294 | 0.0 | 0.0 | 0.00 | 0.00 | 0.00 | 96 | 1015.3 |
| 20260905043520 | 76 | 294 | 0.0 | 0.0 | 0.00 | 0.00 | 0.00 | 96 | 1015.3 |
| 20260905043015 | 76 | 294 | 0.0 | 0.0 | 0.00 | 0.00 | 0.00 | 96 | 1015.3 |
| 20260905042514 | 76 | 294 | 0.0 | 0.0 | 0.00 | 0.00 | 0.00 | 95 | 1015.3 |
| 20260905042009 | 76 | 294 | 0.0 | 0.0 | 0.00 | 0.00 | 0.00 | 95 | 1015.3 |
| 20260905041505 | 76 | 294 | 0.0 | 0.0 | 0.00 | 0.00 | 0.00 | 95 | 1015.3 |
| 20260905041000 | 77 | 294 | 0.0 | 0.0 | 0.00 | 0.00 | 0.00 | 95 | 1015.3 |
| 20260905040459 | 77 | 294 | 0.0 | 0.0 | 0.00 | 0.00 | 0.00 | 95 | 1015.3 |
| 20260905035958 | 77 | 294 | 0.0 | 0.0 | 0.00 | 0.00 | 0.00 | 95 | 1015.3 |
| 20260905035454 | 77 | 294 | 0.0 | 0.0 | 0.00 | 0.00 | 0.00 | 95 | 1015.3 |
| 20260905034951 | 77 | 294 | 0.0 | 0.0 | 0.00 | 0.00 | 0.00 | 95 | 1015.3 |
| 20260905034446 | 77 | 294 | 0.0 | 0.0 | 0.00 | 0.00 | 0.00 | 95 | 1015.3 |
| 20260905033945 | 78 | 294 | 0.0 | 0.0 | 0.00 | 0.00 | 0.00 | 95 | 1015.3 |
| 20260905033445 | 78 | 294 | 0.0 | 0.0 | 0.00 | 0.00 | 0.00 | 94 | 1015.3 |
| 20260905032940 | 78 | 294 | 0.0 | 0.0 | 0.00 | 0.00 | 0.00 | 92 | 1015.3 |
| 20260905032435 | 78 | 294 | 0.0 | 0.0 | 0.00 | 0.00 | 0.00 | 92 | 1015.3 |
| 20260905031931 | 79 | 294 | 0.0 | 0.0 | 0.00 | 0.00 | 0.00 | 92 | 1015.3 |
| 20260905031426 | 79 | 294 | 0.0 | 0.0 | 0.00 | 0.00 | 0.00 | 91 | 1015.3 |
| 20260905030922 | 80 | 294 | 0.0 | 0.0 | 0.00 | 0.00 | 0.00 | 91 | 1015.3 |
| 20260905030417 | 79 | 294 | 0.0 | 0.0 | 0.00 | 0.00 | 0.00 | 92 | 1015.3 |
| 20260905025916 | 79 | 294 | 0.0 | 0.0 | 0.00 | 0.00 | 0.00 | 92 | 1015.3 |
| 20260905025411 | 79 | 294 | 0.0 | 0.0 | 0.00 | 0.00 | 0.00 | 92 | 1015.3 |
| 20260905024908 | 80 | 294 | 0.0 | 0.0 | 0.00 | 0.00 | 0.00 | 92 | 1015.0 |
| 20260905024408 | 80 | 294 | 0.0 | 0.0 | 0.00 | 0.00 | 0.00 | 92 | 1015.0 |
| 20260905023903 | 80 | 294 | 0.0 | 0.0 | 0.00 | 0.00 | 0.00 | 92 | 1015.0 |
| 20260905023353 | 80 | 294 | 0.0 | 0.0 | 0.00 | 0.00 | 0.00 | 92 | 1015.0 |
| 20260905022851 | 80 | 294 | 0.0 | 0.0 | 0.00 | 0.00 | 0.00 | 92 | 1015.3 |
| 20260905022342 | 80 | 294 | 0.0 | 0.0 | 0.00 | 0.00 | 0.00 | 92 | 1015.0 |
| 20260905021841 | 80 | 294 | 0.0 | 0.0 | 0.00 | 0.00 | 0.00 | 92 | 1015.0 |
| 20260905021337 | 80 | 294 | 0.0 | 0.0 | 0.00 | 0.00 | 0.00 | 92 | 1015.0 |
| 20260905020832 | 80 | 294 | 0.0 | 0.0 | 0.00 | 0.00 | 0.00 | 92 | 1015.0 |
| 20260905020326 | 80 | 294 | 0.0 | 0.0 | 0.00 | 0.00 | 0.00 | 92 | 1015.0 |
| 20260905015825 | 80 | 294 | 0.0 | 0.0 | 0.00 | 0.00 | 0.00 | 91 | 1015.0 |
| 20260905015319 | 80 | 294 | 0.0 | 0.0 | 0.00 | 0.00 | 0.00 | 91 | 1015.0 |
| 20260905014819 | 80 | 294 | 0.0 | 0.0 | 0.00 | 0.00 | 0.00 | 91 | 1015.0 |
| 20260905014314 | 80 | 294 | 0.0 | 0.0 | 0.00 | 0.00 | 0.00 | 91 | 1014.7 |
| 20260905013809 | 80 | 294 | 0.0 | 0.0 | 0.00 | 0.00 | 0.00 | 91 | 1014.7 |
| 20260905013306 | 80 | 294 | 0.0 | 0.0 | 0.00 | 0.00 | 0.00 | 91 | 1014.7 |
| 20260905012800 | 80 | 294 | 0.0 | 0.0 | 0.00 | 0.00 | 0.00 | 91 | 1014.7 |
| 20260905012256 | 80 | 294 | 0.0 | 0.0 | 0.00 | 0.00 | 0.00 | 91 | 1014.7 |
| 20260905011753 | 81 | 294 | 0.0 | 0.0 | 0.00 | 0.00 | 0.00 | 91 | 1014.7 |
| 20260905011248 | 81 | 294 | 0.0 | 0.0 | 0.00 | 0.00 | 0.00 | 91 | 1014.7 |
| 20260905010738 | 81 | 294 | 0.0 | 0.0 | 0.00 | 0.00 | 0.00 | 91 | 1014.7 |
| 20260905010233 | 81 | 294 | 0.0 | 0.0 | 0.00 | 0.00 | 0.00 | 89 | 1014.7 |
| 20260905005730 | 81 | 294 | 0.0 | 0.0 | 0.00 | 0.00 | 0.00 | 88 | 1014.7 |
| 20260905005225 | 82 | 294 | 0.0 | 0.0 | 0.00 | 0.00 | 0.00 | 88 | 1014.3 |
| 20260905004724 | 82 | 294 | 0.0 | 0.0 | 0.00 | 0.00 | 0.00 | 87 | 1014.3 |
| 20260905004220 | 82 | 294 | 0.0 | 0.0 | 0.00 | 0.00 | 0.00 | 87 | 1014.3 |
| 20260905003720 | 83 | 294 | 0.0 | 0.0 | 0.00 | 0.00 | 0.00 | 87 | 1014.3 |
| 20260905003216 | 83 | 294 | 0.0 | 0.0 | 0.00 | 0.00 | 0.00 | 87 | 1014.3 |
| 20260905002711 | 84 | 294 | 0.0 | 0.0 | 0.00 | 0.00 | 0.00 | 86 | 1014.3 |
| 20260905002211 | 84 | 294 | 0.0 | 0.0 | 0.00 | 0.00 | 0.00 | 85 | 1014.3 |
| 20260905001706 | 84 | 294 | 0.0 | 0.0 | 0.00 | 0.00 | 0.00 | 85 | 1014.3 |
| 20260905001205 | 85 | 294 | 0.0 | 0.0 | 0.00 | 0.00 | 0.00 | 84 | 1014.3 |
| 20260905000700 | 85 | 294 | 0.0 | 0.0 | 0.00 | 0.00 | 0.00 | 83 | 1014.3 |
| 20260905000156 | 86 | 294 | 0.0 | 0.0 | 0.00 | 0.00 | 0.00 | 82 | 1014.3 |
| 20260904235656 | 86 | 294 | 0.0 | 0.0 | 0.00 | 0.00 | 0.00 | 82 | 1014.3 |
| 20260904235156 | 86 | 294 | 0.0 | 0.0 | 0.00 | 0.00 | 0.00 | 81 | 1014.3 |